OHHEL LPFR-LXGB

Flight info

Callsign OHHEL
Flight time N/A
Altitude 19000
Route NIRAK Y136 NAPES/N0307F180 N747 SVL/N0301F170 M744 MAR N864 PIMOS
Aircraft GLF5/M-SBDE2E3FGHIJ3J4J5P2RWXY/LB1D1

Departure

Time 2026-05-05 21:12
Airport Faro - Gago Coutinho International Airport (LPFR)

Arrival

Time N/A
Airport Gibraltar Airport (LXGB)
Time Latitude Longitude Altitude Speed Heading
2026-05-05 20:41 37.01673 -7.96319 20 ft 0 kts 191°
2026-05-05 21:05 37.01687 -7.96316 19 ft 2 kts 190°
2026-05-05 21:05 37.01702 -7.96312 19 ft 2 kts 191°
2026-05-05 21:05 37.01717 -7.96309 18 ft 2 kts 191°
2026-05-05 21:05 37.01730 -7.96306 18 ft 0 kts 191°
2026-05-05 21:06 37.01740 -7.96304 18 ft 2 kts 160°
2026-05-05 21:06 37.01752 -7.96316 18 ft 1 kts 110°
2026-05-05 21:06 37.01753 -7.96323 18 ft 1 kts 94°
2026-05-05 21:06 37.01754 -7.96328 18 ft 0 kts 99°
2026-05-05 21:09 37.01753 -7.96324 18 ft 2 kts 99°
2026-05-05 21:09 37.01746 -7.96279 18 ft 8 kts 101°
2026-05-05 21:09 37.01732 -7.96179 20 ft 13 kts 99°
2026-05-05 21:09 37.01687 -7.96080 21 ft 14 kts 172°
2026-05-05 21:10 37.01595 -7.96097 23 ft 11 kts 185°
2026-05-05 21:10 37.01548 -7.96042 23 ft 10 kts 101°
2026-05-05 21:10 37.01536 -7.95960 21 ft 9 kts 102°
2026-05-05 21:10 37.01526 -7.95892 19 ft 7 kts 102°
2026-05-05 21:11 37.01465 -7.95839 18 ft 14 kts 186°
2026-05-05 21:11 37.01384 -7.95861 18 ft 10 kts 193°
2026-05-05 21:11 37.01344 -7.95893 20 ft 3 kts 267°
2026-05-05 21:11 37.01345 -7.95900 20 ft 3 kts 279°
2026-05-05 21:12 37.01392 -7.96236 24 ft 74 kts 281°
2026-05-05 21:12 37.01522 -7.97142 18 ft 134 kts 281°
2026-05-05 21:12 37.01691 -7.98408 398 ft 150 kts 283°
2026-05-05 21:12 37.01810 -7.99752 1027 ft 163 kts 275°
2026-05-05 21:13 37.01568 -8.01113 1900 ft 166 kts 255°
2026-05-05 21:13 37.00915 -8.02310 2698 ft 175 kts 221°
2026-05-05 21:13 36.99721 -8.02800 3345 ft 193 kts 181°
2026-05-05 21:13 36.98484 -8.02705 4510 ft 176 kts 173°
2026-05-05 21:14 36.97247 -8.02346 5101 ft 195 kts 152°
2026-05-05 21:14 36.96207 -8.01041 5289 ft 239 kts 112°
2026-05-05 21:14 36.96058 -7.98847 5600 ft 275 kts 73°
2026-05-05 21:14 36.96740 -7.96648 6855 ft 274 kts 69°
2026-05-05 21:15 36.97335 -7.94395 7910 ft 282 kts 72°
2026-05-05 21:15 36.97872 -7.92004 8994 ft 289 kts 74°
2026-05-05 21:15 36.98365 -7.89590 10044 ft 295 kts 75°
2026-05-05 21:15 36.98865 -7.87006 10462 ft 326 kts 76°
2026-05-05 21:16 36.99416 -7.84052 10681 ft 360 kts 76°
2026-05-05 21:16 36.99971 -7.81020 11804 ft 362 kts 76°
2026-05-05 21:16 37.00531 -7.77933 12049 ft 373 kts 76°
2026-05-05 21:16 37.01110 -7.74736 13250 ft 374 kts 76°
2026-05-05 21:17 37.02045 -7.71760 14292 ft 376 kts 56°
2026-05-05 21:17 37.03430 -7.68965 15171 ft 384 kts 62°
2026-05-05 21:17 37.04509 -7.65895 16223 ft 389 kts 68°
2026-05-05 21:17 37.05418 -7.62727 17091 ft 398 kts 70°
2026-05-05 21:18 37.06272 -7.59417 18020 ft 406 kts 71°
2026-05-05 21:18 37.07075 -7.56156 18886 ft 409 kts 72°
2026-05-05 21:18 37.07916 -7.52671 18990 ft 416 kts 72°
2026-05-05 21:18 37.08752 -7.49169 19009 ft 416 kts 72°
2026-05-05 21:19 37.09576 -7.45700 19010 ft 414 kts 72°
2026-05-05 21:19 37.10395 -7.42246 19008 ft 413 kts 72°
2026-05-05 21:19 37.11205 -7.38827 19007 ft 413 kts 72°
2026-05-05 21:19 37.12021 -7.35377 19011 ft 413 kts 72°
2026-05-05 21:20 37.12802 -7.32070 19005 ft 413 kts 73°
2026-05-05 21:20 37.13611 -7.28639 19002 ft 413 kts 73°
2026-05-05 21:20 37.14422 -7.25197 19002 ft 413 kts 73°
2026-05-05 21:20 37.15235 -7.21738 19002 ft 412 kts 73°
2026-05-05 21:21 37.16049 -7.18269 18992 ft 413 kts 73°
2026-05-05 21:21 37.16855 -7.14834 18994 ft 413 kts 73°
2026-05-05 21:21 37.17659 -7.11397 18997 ft 413 kts 73°
2026-05-05 21:21 37.18470 -7.07931 18998 ft 413 kts 73°
2026-05-05 21:22 37.19269 -7.04506 18995 ft 413 kts 73°
2026-05-05 21:22 37.20011 -7.00983 19001 ft 414 kts 76°
2026-05-05 21:22 37.20662 -6.97478 19002 ft 414 kts 76°
2026-05-05 21:22 37.21327 -6.93924 19014 ft 415 kts 76°
2026-05-05 21:23 37.21932 -6.90413 19000 ft 414 kts 82°
2026-05-05 21:23 37.21793 -6.86827 19014 ft 414 kts 102°
2026-05-05 21:23 37.20967 -6.83385 19019 ft 414 kts 110°
2026-05-05 21:23 37.19899 -6.80017 19008 ft 414 kts 114°
2026-05-05 21:24 37.18735 -6.76673 19011 ft 414 kts 115°
2026-05-05 21:24 37.17552 -6.73397 19011 ft 414 kts 115°
2026-05-05 21:24 37.16346 -6.70101 19011 ft 414 kts 115°
2026-05-05 21:24 37.15129 -6.66796 18999 ft 414 kts 115°
2026-05-05 21:25 37.13926 -6.63540 19010 ft 413 kts 116°
2026-05-05 21:25 37.12707 -6.60244 19006 ft 413 kts 116°
2026-05-05 21:25 37.11506 -6.57003 19002 ft 413 kts 116°
2026-05-05 21:25 37.10287 -6.53714 19004 ft 413 kts 116°
2026-05-05 21:26 37.09081 -6.50466 19007 ft 413 kts 116°
2026-05-05 21:26 37.07870 -6.47209 18998 ft 413 kts 116°
2026-05-05 21:26 37.06650 -6.43929 19005 ft 413 kts 116°
2026-05-05 21:26 37.05443 -6.40688 19006 ft 413 kts 116°
2026-05-05 21:27 37.04224 -6.37421 18999 ft 413 kts 116°
2026-05-05 21:27 37.03411 -6.35242 18994 ft 413 kts 116°